HST 1 20580U 90037B 26093.66929401 .00012406 00000+0 40809-3 0 9997 2 20580 28.4724 229.5454 0002132 51.9469 308.1319 15.29899616777144 POLAR 1 23802U 96013A 26093.32531323 .00000089 00000+0 00000+0 0 9991 2 23802 79.7811 227.9138 6394778 211.6312 85.4538 1.29845729143886 SWAS 1 25560U 98071A 26093.32689433 .00007404 00000+0 47218-3 0 9990 2 25560 69.8965 60.4901 0006032 335.2108 24.8765 15.09084487485977 CXO 1 25867U 99040B 26095.33038449 .00000781 00000+0 00000+0 0 9990 2 25867 54.9818 118.8093 7953036 310.6470 0.0525 0.37805440 17044 XMM-NEWTON 1 25989U 99066A 26095.54798203 .00000069 00000+0 00000+0 0 9996 2 25989 64.8516 283.9204 4698499 66.1986 0.0494 0.50130994 22640 TERRA 1 25994U 99068A 26093.85447931 .00000802 00000+0 17236-3 0 9993 2 25994 97.9540 146.3212 0003667 99.7878 347.2020 14.61043899398759 CLUSTER II-FM7 (SAMBA) 1 26410U 00041A 26090.03773165 .00002444 00000+0 00000+0 0 9999 2 26410 149.3581 38.1493 8953066 254.4502 0.4223 0.44796982 19968 CLUSTER II-FM8 (TANGO) 1 26464U 00045B 26094.11120259 .00003194 00000+0 00000+0 0 9998 2 26464 149.6837 39.5667 8962149 255.7736 0.6086 0.44400104 19975 ODIN 1 26702U 01007A 26093.61740769 .00069825 00000+0 82084-3 0 9999 2 26702 97.4008 130.7242 0004651 88.3634 271.8157 15.61208605377725 TIMED 1 26998U 01055B 26093.87300949 .00003165 00000+0 29194-3 0 9997 2 26998 74.0713 24.6298 0002631 243.2695 116.8220 14.95116280319710 CORIOLIS 1 27640U 03001A 26093.64473069 .00000220 00000+0 12412-3 0 9998 2 27640 98.7157 101.6612 0015092 69.5328 290.7467 14.19923156203646 SORCE 1 27651U 03004A 26093.34716110 .00006312 00000+0 46617-3 0 9999 2 27651 39.9920 328.5335 0018352 237.6217 122.2801 15.03297487260630 MOST 1 27843U 03031D 26093.59037520 .00000149 00000+0 88199-4 0 9994 2 27843 98.7078 102.3501 0010949 106.2822 253.9560 14.21306615180111 SCISAT 1 1 27858U 03036A 26093.73836023 .00001251 00000+0 16467-3 0 9999 2 27858 73.9304 319.2572 0006385 32.5061 327.6507 14.81361611220428 SWIFT 1 28485U 04047A 26093.09416068 .00074161 00000+0 80826-3 0 9991 2 28485 20.5542 41.1625 0002956 340.9465 19.0869 15.61655549175080 HINODE (SOLAR-B) 1 29479U 06041A 26093.64634983 .00001251 00000+0 22377-3 0 9997 2 29479 98.0603 110.8869 0017982 160.3641 199.8260 14.68517991 43935 SHIJIAN-6 02A (SJ-6 02A) 1 29505U 06046A 26093.86108733 .00007812 00000+0 40901-3 0 9997 2 29505 97.6443 134.3864 0004166 57.1722 302.9910 15.16092788 61004 SHIJIAN-6 02B (SJ-6 02B) 1 29506U 06046B 26093.82918444 .00002467 00000+0 19712-3 0 9999 2 29506 97.7102 123.3700 0012245 321.7363 38.2991 15.01128668 59582 FGRST (GLAST) 1 33053U 08029A 26093.83525421 .00006854 00000+0 26471-3 0 9998 2 33053 25.5839 0.5820 0008232 166.3761 193.7000 15.23537794984487 SDO 1 36395U 10005A 26093.00669913 -.00000054 00000+0 00000+0 0 9994 2 36395 34.4952 87.4755 0000578 22.7728 341.7255 1.00274249 59313 CRYOSAT 2 1 36508U 10013A 26093.85456965 .00000407 00000+0 10030-3 0 9992 2 36508 92.0253 259.2747 0002444 96.8113 263.3372 14.51898100847296 X-SAT 1 37389U 11015C 26093.87736591 .00000002 00000+0 18212-4 0 9993 2 37389 98.3460 74.4640 0013491 196.6029 163.4711 14.25182723777096 GCOM-W1 (SHIZUKU) 1 38337U 12025A 26093.87108272 .00001064 00000+0 24613-3 0 9998 2 38337 98.2088 35.5600 0001121 74.6333 353.2050 14.57137531738217 NUSTAR 1 38358U 12031A 26093.91668981 .00020814 00000+0 12531-2 0 9990 2 38358 6.0268 230.9407 0006853 85.2332 223.7470 15.08066728 1303 NEOSSAT 1 39089U 13009D 26093.50494737 .00000308 00000+0 12109-3 0 9997 2 39089 98.4159 275.3172 0012146 107.6458 252.6055 14.35799406686024 BRITE-AUSTRIA 1 39091U 13009F 26093.47096828 .00000381 00000+0 14431-3 0 9996 2 39091 98.3974 274.7607 0011369 102.3079 257.9381 14.36511335686321 IRIS 1 39197U 13033A 26093.54694084 .00002386 00000+0 27993-3 0 9990 2 39197 97.9379 293.0419 0023975 200.1904 159.8365 14.85726244689299 HISAKI (SPRINT-A) 1 39253U 13049A 26093.52256178 .00000177 00000+0 15207-3 0 9997 2 39253 29.7188 239.6085 0136415 131.5265 229.7098 13.55534574621283 CASSIOPE 1 39265U 13055A 26093.83640221 .00046376 -13076-6 55116-3 0 9996 2 39265 80.9173 156.6686 0307068 312.0626 45.4842 15.20676180656355 STSAT-3 1 39422U 13066G 26093.85809650 .00005945 00000+0 45392-3 0 9995 2 39422 97.6162 65.0106 0009000 284.0790 75.9434 15.02321210673049 SWARM B 1 39451U 13067A 26093.81789712 .00007876 00000+0 28635-3 0 9996 2 39451 87.7506 4.8824 0002934 77.5866 282.5711 15.28106335671880 SWARM A 1 39452U 13067B 26093.85274806 .00019665 00000+0 35759-3 0 9998 2 39452 87.3284 83.8241 0003513 95.4939 264.6722 15.49395957694739 SWARM C 1 39453U 13067C 26093.85267605 .00019597 00000+0 35639-3 0 9999 2 39453 87.3285 82.4050 0003515 95.8702 264.2959 15.49393258694693 BRITE-CA1 (TORONTO) 1 40020U 14033L 26093.29606938 .00002585 00000+0 39485-3 0 9991 2 40020 97.9611 223.6620 0079446 155.8522 204.6443 14.72547425631194 OCO 2 1 40059U 14035A 26093.85483882 .00000941 00000+0 21882-3 0 9994 2 40059 98.1965 36.3038 0001571 90.5888 269.5490 14.57126585625229 BRITE-PL2 (HEWELIUSZ) 1 40119U 14049B 26093.85179314 .00004808 00000+0 45204-3 0 9998 2 40119 97.9005 205.3318 0013865 2.6777 357.4514 14.94318001630347 MMS 1 1 40482U 15011A 26093.83335647 -.00001241 00000+0 00000+0 0 9992 2 40482 71.1441 349.8174 8387759 165.8381 274.0098 0.28356519 1306 MMS 2 1 40483U 15011B 26093.83335647 -.00001242 00000+0 00000+0 0 9994 2 40483 71.1442 349.8196 8388506 165.8432 273.9980 0.28355483 1307 MMS 3 1 40484U 15011C 26093.83335647 -.00001242 00000+0 00000+0 0 9995 2 40484 71.1468 349.8242 8387761 165.8375 274.0029 0.28355450 1306 MMS 4 1 40485U 15011D 26093.83335647 -.00001242 00000+0 00000+0 0 9996 2 40485 71.1443 349.8195 8387290 165.8449 273.9897 0.28355440 1306 ASTROSAT 1 40930U 15052A 26093.34722861 .00002768 00000+0 25573-3 0 9999 2 40930 5.9980 334.0049 0007607 42.4365 317.6351 14.82370020568705 DAMPE 1 41173U 15078A 26093.90562834 .00000597 00000+0 22786-4 0 9993 2 41173 97.4579 99.0120 0011618 348.7844 11.3136 15.30592105573185 PISAT 1 41784U 16059B 26093.55418219 .00001965 00000+0 34214-3 0 9997 2 41784 97.8192 97.2203 0030591 84.3153 276.1540 14.68842191508784 HXMT (HUIYAN) 1 42758U 17034A 26093.78771126 .00011156 00000+0 54601-3 0 9992 2 42758 43.0138 237.1025 0031031 31.4021 328.8673 15.17801195486357 FLYING LAPTOP 1 42831U 17042G 26093.85036731 .00008459 00000+0 66932-3 0 9999 2 42831 97.4355 252.4201 0019815 17.3838 342.8061 15.00699548475303 ZHANGHENG 1-01 (CSES-1) 1 43194U 18015C 26093.85607527 .00016528 00000+0 74560-3 0 9992 2 43194 97.6798 258.0610 0018636 150.6388 209.5898 15.20933202453343 SALSAT 1 46495U 20068K 26093.87835587 .00015748 00000+0 56600-3 0 9999 2 46495 97.8863 92.4843 0009435 192.9205 167.1793 15.28698667304009 IXPE 1 49954U 21121A 26093.83335647 .00032972 00000+0 19278-2 0 9998 2 49954 0.2297 159.4594 0006926 33.3263 358.0998 15.09559912 5523